Location: 5810 Zion Rd, Cleves, OH 45002, USA
(39.1922°N, 84.7113°W)
Time: 22:33:45
(UTC-05:00)

Vanguard 3 - Pass Details

Date: 23 December 2019
Orbit: 507 x 3264 km, 33.4° (Epoch: 27 January)

Event Time Altitude Azimuth Distance (km) Brightness Sun altitude
Rises 06:46:37 0° 257° (WSW) 2,752 - -12.9°
Reaches altitude 10° 06:48:35 10° 251° (WSW) 1,986 - -12.6°
Exits shadow 06:48:42 11° 250° (WSW) 1,941 8.7 -12.6°
Maximum altitude 06:52:50 47° 177° (S) 1,050 7.9 -11.8°
Drops below altitude 10° 06:59:34 10° 106° (ESE) 3,122 11.7 -10.6°
Sets 07:03:24 0° 101° (E) 4,550 12.9 -9.9°
